Location: Unspecified
(0.0000°N, 0.0000°E)
Time: 01:26:06
(UTC+00:00)

Envisat - Pass Details

Date: 23 April 2018
Orbit: 764 x 766 km, 98.2° (Epoch: 19 July)

Event Time Altitude Azimuth Distance (km) Brightness Sun altitude
Exits shadow 19:25:58 36° 60° (ENE) 1,184 3.6 -21.4°
Drops below altitude 10° 19:29:58 10° 11° (N) 2,290 5.5 -22.3°
Sets 19:32:24 0° 3° (N) 3,213 6.4 -22.9°
